Weather History for KJVL - November, 2013

Change the Weather History Date:

Tuesday, November 5, 2013

  Actual Average Record
Temperature  
Mean Temperature 52 °F -  
Max Temperature 55 °F 52 °F 71 °F (2008)
Min Temperature 48 °F 33 °F 11 °F (1991)
Degree Days  
Heating Degree Days 14    
Growing Degree Days 2 (Base 50)    
Moisture  
Dew Point 46 °F    
Average Humidity 82    
Maximum Humidity 94    
Minimum Humidity 71    
Precipitation  
Precipitation 0.06 in - - ()
Sea Level Pressure  
Sea Level Pressure 30.09 in    
Wind  
Wind Speed 6 mph (SSE)    
Max Wind Speed 21 mph    
Max Gust Speed 28 mph    
Visibility 8 miles    
Events Rain    
Averages and records for this station are not official NWS values.
T = Trace of Precipitation, MM = Missing Value Source: NWS Daily Summary

Daily Weather History Graph

Daily Weather History Graph

Search for Another Location

Airport or City:

Trip Planner

Search our weather history database for the weather conditions in past years. The results will help you decide how hot, cold, wet, or windy it might be!

Date:

Astronomy

Nov. 05, 2013 Rise Set
Actual Time 6:35 AM CST 4:43 PM CST
Civil Twilight 6:05 AM CST 5:13 PM CST
Nautical Twilight 5:32 AM CST 5:46 PM CST
Astronomical Twilight 4:59 AM CST 6:19 PM CST
Moon 8:52 AM CST (11/5) 6:43 PM CST (11/5)
Length of Visible Light 11h 07m
Length of Day
10h 08m
Waxing Crescent, 7% of the Moon is Illuminated
Nov 5
Waxing Crescent
Nov 9
First Quarter
Nov 17
Full
Nov 25
Last Quarter
Dec 2
New

Hourly Weather History & Observations

Time (CST) Temp. Dew Point Humidity Pressure Visibility Wind Dir Wind Speed Gust Speed Precip Events Conditions
12:15 AM 51.8 °F 42.8 °F 71% 30.17 in 7.0 mi Calm Calm - N/A   Overcast
12:35 AM 50.0 °F 42.8 °F 76% 30.17 in 10.0 mi Calm Calm - N/A   Overcast
12:55 AM 50.0 °F 42.8 °F 76% 30.18 in 10.0 mi Calm Calm - N/A   Overcast
1:15 AM 51.8 °F 42.8 °F 71% 30.18 in 10.0 mi Calm Calm - N/A   Overcast
1:35 AM 51.8 °F 42.8 °F 71% 30.18 in 10.0 mi Calm Calm - N/A   Overcast
1:55 AM 50.0 °F 42.8 °F 76% 30.18 in 10.0 mi Calm Calm - N/A   Overcast
2:15 AM 50.0 °F 42.8 °F 76% 30.18 in 10.0 mi SSE 3.5 mph - N/A   Overcast
2:35 AM 50.0 °F 42.8 °F 76% 30.18 in 10.0 mi Calm Calm - N/A   Overcast
2:55 AM 50.0 °F 42.8 °F 76% 30.18 in 10.0 mi South 3.5 mph - N/A   Overcast
3:15 AM 50.0 °F 42.8 °F 76% 30.19 in 10.0 mi Calm Calm - N/A   Overcast
3:35 AM 50.0 °F 42.8 °F 76% 30.19 in 10.0 mi Calm Calm - N/A   Overcast
3:55 AM 50.0 °F 42.8 °F 76% 30.19 in 10.0 mi Calm Calm - N/A   Overcast
4:15 AM 50.0 °F 42.8 °F 76% 30.19 in 10.0 mi SSE 3.5 mph - N/A   Overcast
4:35 AM 50.0 °F 42.8 °F 76% 30.20 in 10.0 mi Calm Calm - N/A   Overcast
5:45 AM 48.2 °F 42.8 °F 82% 30.20 in 10.0 mi Calm Calm - N/A   Overcast
6:45 AM 48.2 °F 42.8 °F 82% 30.21 in 10.0 mi ESE 6.9 mph - N/A   Overcast
7:45 AM 50.0 °F 44.6 °F 82% 30.23 in 10.0 mi ESE 6.9 mph - N/A   Overcast
8:45 AM 53.6 °F 44.6 °F 72% 30.23 in 10.0 mi SE 8.1 mph - N/A   Overcast
9:45 AM 53.6 °F 44.6 °F 72% 30.23 in 10.0 mi SSE 9.2 mph - N/A   Overcast
10:45 AM 53.6 °F 44.6 °F 72% 30.21 in 10.0 mi SE 5.8 mph - N/A   Overcast
11:45 AM 55.4 °F 46.4 °F 72% 30.18 in 10.0 mi SE 6.9 mph - N/A   Overcast
12:45 PM 55.4 °F 46.4 °F 72% 30.16 in 10.0 mi SE 11.5 mph - N/A   Overcast
1:45 PM 51.8 °F 48.2 °F 88% 30.14 in 3.0 mi SSE 9.2 mph - N/A   Overcast
2:45 PM 51.8 °F 48.2 °F 88% 30.10 in 2.0 mi SE 10.4 mph - N/A Rain Light Rain
4:45 PM 53.6 °F 50.0 °F 88% 30.06 in 2.0 mi South 11.5 mph - N/A Rain Light Rain
5:45 PM 53.6 °F 50.0 °F 88% 30.04 in 5.0 mi SSE 13.8 mph - N/A Rain Light Rain
6:45 PM 53.6 °F 50.0 °F 88% 30.01 in 7.0 mi South 13.8 mph 19.6 mph N/A   Overcast
7:45 PM 51.8 °F 50.0 °F 94% 29.97 in 7.0 mi South 15.0 mph 20.7 mph N/A   Overcast
8:15 PM 51.8 °F 50.0 °F 94% 29.95 in 10.0 mi South 15.0 mph 25.3 mph N/A   Overcast
8:35 PM 51.8 °F 50.0 °F 94% 29.95 in 10.0 mi South 18.4 mph 24.2 mph N/A   Overcast
8:45 PM 51.8 °F 48.2 °F 88% 29.94 in 10.0 mi South 18.4 mph 24.2 mph N/A   Overcast
8:55 PM 51.8 °F 50.0 °F 94% 29.94 in 10.0 mi South 16.1 mph 24.2 mph N/A   Overcast
9:15 PM 51.8 °F 50.0 °F 94% 29.94 in 10.0 mi South 20.7 mph 27.6 mph N/A   Overcast
9:35 PM 51.8 °F 48.2 °F 88% 29.93 in 5.0 mi South 18.4 mph 27.6 mph N/A   Light Drizzle
9:55 PM 51.8 °F 48.2 °F 88% 29.93 in 5.0 mi South 19.6 mph 27.6 mph N/A   Overcast
10:15 PM 51.8 °F 48.2 °F 88% 29.93 in 4.0 mi South 20.7 mph 27.6 mph N/A   Overcast
10:35 PM 51.8 °F 50.0 °F 94% 29.92 in 7.0 mi South 18.4 mph 27.6 mph N/A   Overcast
10:55 PM 53.6 °F 50.0 °F 88% 29.90 in 5.0 mi South 17.3 mph 25.3 mph N/A   Overcast
11:15 PM 53.6 °F 50.0 °F 88% 29.90 in 7.0 mi South 16.1 mph 25.3 mph N/A Rain Light Rain
11:35 PM 53.6 °F 50.0 °F 88% 29.89 in 10.0 mi South 17.3 mph 27.6 mph N/A   Overcast
11:55 PM 53.6 °F 50.0 °F 88% 29.88 in 5.0 mi South 19.6 mph 24.2 mph 0.06 in Rain Rain